Regional Weather Roundup
Issued by NWS

Home | Current Version | Previous Version | Text Only | Print | Product List | Glossary On
Versions: 1 2 3 4 5 6 7 8 9 10 11 12 13 14 15 16 17 18 19 20 21 22 23 24 25 26 27 28 29 30 31 32 33 34 35 36 37 38 39 40 41 42 43 44 45 46 47 48 49 50
000
ASPQ40 PGUM 021810
RWRPQ
WEATHER ROUNDUP FOR THE MARIANAS AND MICRONESIA
NATIONAL WEATHER SERVICE TIYAN GU
400 AM CHST THU SEP 03 2015

GUZ001>004-021900-
MARIANA ISLANDS-

CITY           SKY/WX    TMP DP  RH WIND       PRES   REMARKS
GUAM AIRPORT   CLEAR     79  75  89 N5        29.85F
ANDERSEN AFB   PTCLDY    75  73  94 NW5       29.85F
ROTA AIRPORT   NOT AVBL
TINIAN AP      NOT AVBL
SAIPAN AP      LGT RAIN  79  75  89 NW5       29.84F

$$

PMZ161-021900-
REPUBLIC OF PALAU-

CITY           SKY/WX    TMP DP  RH WIND       PRES   REMARKS
KOROR AP       MOCLDY    77  75  94 CALM      29.86S
KOROR WSO      MOCLDY    81  77  89 CALM      29.88F

$$

PMZ171>174-021900-
FEDERATED STATES OF MICRONESIA-

CITY           SKY/WX    TMP DP  RH WIND       PRES   REMARKS
YAP AIRPORT    CLOUDY    77  75  94 CALM      29.85F
CHUUK AP       SHOWER    75  75 100 VRB5      29.86R
POHNPEI AP     NOT AVBL
POHNPEI WSO    CLOUDY    79  77  94 S6        29.88R
KOSRAE AP      NOT AVBL

$$

PMZ181-021900-
REPUBLIC OF THE MARSHALL ISLANDS-

CITY           SKY/WX    TMP DP  RH WIND       PRES   REMARKS
KWAJALEIN AP   CLEAR     81  75  83 CALM      29.87R
MAJURO AP      NOT AVBL
MAJURO WSO     MOCLDY    82  77  83 SW8       29.87R HX  91

$$



USA.gov is the U.S. government's official web portal to all federal, state and local government web resources and services.